YAM-6

导读

YAM-6是美国于2024年3月4日08:00发射的人造卫星,作为2024年美国航天发射任务的组成部分,承载着美国航天领域相关部署需求。该卫星入轨后已稳定运行近两年时间,服务于航天应用相关领域,助力美国完善卫星网络布局,推动航天技术应用与发展,是美国2024年航天活动的重要成果之一。

Basic Information
目录编号:
59126
目录名称:
YAM-6
国际标识:
2024-043AE
轨道中心:
EARTH
卫星名称:
YAM-6
卫星全名:
--
卫星状态:
在轨 (已飞行915 天)
发射日期:
2024-03-04 UTC
国别 :
美国 (US)
星等 :
--
Orbit Information
数据来源 国际轨道数据
星历时间: 2026-09-05T11:43:37+0800
7小时前
查看轨道信息
半长轴: 6829.187km
偏心率: 0.0006819
轨道倾角: 97.567°
近地点辐角 309.614°
升交点赤经 31.644°
平近点角 50.451°
近地点: 446.393km
远地点: 455.707km
周期: 93.608分钟
每日圈数: 15.383292
Detailed Information
使用方式:
暂无
2D Orbit Map
3D Orbit Map
Orbit Altitude Analysis Chart
Orbit Inclination Analysis Chart
Orbit Comprehensive Analysis Chart
View Comprehensive Chart
Conjunction Data List
Event ID Objects TCA Miss Dist (km) Collision Risk Probability Collision Risk Index (CRI) Action
CDM_260907-153605-372905-912621
YAM-6 (59126)
2026-09-07T
15:36:05+0000
2.630 km
极远距离
1.485981E-6 低风险 0.38
CDM_260903-062604-475205-912625
YAM-6 (59126)
2026-09-03T
06:26:03+0000
2.480 km
极远距离
1.031945E-6 低风险 0.35
CDM_260903-101505-328005-912621
YAM-6 (59126)
2026-09-03T
10:15:13+0000
2.580 km
极远距离
1.016388E-6 低风险 0.35
CDM_260907-200605-912606-875621
YAM-6 (59126)
2026-09-07T
20:06:45+0000
2.029 km
极远距离
7.652614E-7 极低风险 0.33